Location: Antioch Baptist Church
(32.6696°N, 85.7327°W)
Time: 21:14:49
(UTC+00:00)

Cosmos 1943 Rocket - Pass Details

Date: 14 July 2020
Orbit: 811 x 845 km, 71.0° (Epoch: 13 August)

Event Time Altitude Azimuth Distance (km) Brightness Sun altitude
Rises 03:10:59 0° 360° (N) 3,405 6.1 -23.9°
Reaches altitude 10° 03:14:47 10° 25° (NNE) 2,462 4.9 -24.4°
Maximum altitude 03:17:38 14° 56° (NE) 2,184 4.3 -24.8°
Enters shadow 03:18:24 14° 65° (ENE) 2,203 4.2 -24.9°
